Location: *
(45.5667°S, 177.5167°W)
Time: 04:27:54
(UTC+00:00)

Cosmos 1862 - Pass Details

Date: 29 May 2022
Orbit: 531 x 554 km, 82.5° (Epoch: 24 June)

Event Time Altitude Azimuth Distance (km) Brightness Sun altitude
Rises 05:58:46 0° 358° (N) 2,682 7.0 -17.2°
Reaches altitude 10° 06:00:54 10° 0° (N) 1,803 6.1 -17.5°
Maximum altitude 06:04:50 71° 83° (E) 584 3.2 -18.2°
Enters shadow 06:07:20 22° 164° (SSE) 1,229 4.8 -18.6°
